Startpagina
METAR-TAF:

METAR-TAF

Vliegvelden :

Yellowstone Lake, Wyoming, Verenigde Staten

breedte: 44-32-40N, lengte: 110-25-16W, hoogte: 2388 m

Actueel weer

Dit bericht is 51 minuten geleden gemaakt, om 15:56 UTC
Weinig wind
Temperatuur -9°C
Vochtigheid 79%
Druk 1022 hPa

METAR: KP60 111556Z AUTO 00000KT M09/M12 A3017 RMK AO1 SLP262 T10891117

Tijdstip: 09:47 (16:47 UTC)


TAF: ontbreekt

Waarnemingen en weersverwachtingen van meer dan 4000 vliegvelden (METAR en TAF).

De beschikbare stations zijn de gele en rode punten op de kaart.

Ga met uw muis naar het station om de naam te zien.

Klik dan om waarnemingen en weersverwachtingen te zien.

kaart wijzigen: klik op de groene knoppen met een zwart kruis om in te zoomen, op de groene knop met een streepje om uit te zoomen of op de groene pijlen voor aangrenzende kaarten.


METAR-TAF: